User: anonymous   Login
Location: Colorado Springs
(38.8340°N, 104.8210°W)
Time: 23:48:10
(UTC-06:00)
Language:

ISS - Orbit

View from above orbital plane
View from above orbital plane
View from above satellite
View from above satellite

Ground track
Ground track

The orbit data is extracted from the following two-line orbital elements,

1 25544U 98067A   17290.14405468  .00016717  00000-0  10270-3 0  9064
2 25544  51.6384 150.3636 0004984  27.6565 332.4852 15.54165257   715
Epoch (UTC): 17 October 2017 03:27:26
Eccentricity: 0.0004984
inclination: 51.6384°
perigee height: 401 km
apogee height: 408 km
right ascension of ascending node: 150.3636°
argument of perigee: 27.6565°
revolutions per day: 15.54165257
mean anomaly at epoch: 332.4852°
orbit number at epoch: 71

The dashed part of the orbit path shows where the satellite is in the earth's shadow,  

DLR